| time (UTC) | temp C | wind direction | speed KPH | gust KPH | rain 1hr cm | rain 24hr cm | rain mn cm | humidity % | barometer mb |
| 20260509091544 | 20 | 302 | 9.7 | 0.0 | 0.00 | 0.00 | 0.00 | 54 | 1014.4 |
| 20260509091054 | 20 | 351 | 11.3 | 0.0 | 0.00 | 0.00 | 0.00 | 54 | 1014.4 |
| 20260509090536 | 20 | 304 | 11.3 | 0.0 | 0.00 | 0.00 | 0.00 | 53 | 1014.4 |
| 20260509090043 | 20 | 314 | 12.9 | 0.0 | 0.00 | 0.00 | 0.00 | 54 | 1014.4 |
| 20260509085532 | 20 | 294 | 11.3 | 0.0 | 0.00 | 0.00 | 0.00 | 53 | 1014.4 |
| 20260509085058 | 20 | 318 | 9.7 | 0.0 | 0.00 | 0.00 | 0.00 | 53 | 1014.3 |
| 20260509084525 | 20 | 318 | 11.3 | 0.0 | 0.00 | 0.00 | 0.00 | 54 | 1014.3 |
| 20260509084033 | 20 | 314 | 12.9 | 0.0 | 0.00 | 0.00 | 0.00 | 53 | 1014.3 |
| 20260509083534 | 20 | 311 | 14.5 | 0.0 | 0.00 | 0.00 | 0.00 | 53 | 1014.1 |
| 20260509083043 | 20 | 312 | 12.9 | 0.0 | 0.00 | 0.00 | 0.00 | 52 | 1014.1 |
| 20260509082530 | 20 | 311 | 11.3 | 0.0 | 0.00 | 0.00 | 0.00 | 50 | 1014.1 |
| 20260509082035 | 20 | 302 | 12.9 | 0.0 | 0.00 | 0.00 | 0.00 | 50 | 1014.0 |
| 20260509081544 | 20 | 320 | 11.3 | 0.0 | 0.00 | 0.00 | 0.00 | 49 | 1014.0 |
| 20260509081053 | 21 | 301 | 8.0 | 0.0 | 0.00 | 0.00 | 0.00 | 37 | 1014.0 |
| 20260509080536 | 21 | 317 | 6.4 | 0.0 | 0.00 | 0.00 | 0.00 | 45 | 1014.0 |
| 20260509080040 | 21 | 284 | 8.0 | 0.0 | 0.00 | 0.00 | 0.00 | 36 | 1014.0 |
| 20260509075528 | 21 | 285 | 9.7 | 0.0 | 0.00 | 0.00 | 0.00 | 38 | 1014.0 |
| 20260509075055 | 21 | 320 | 9.7 | 0.0 | 0.00 | 0.00 | 0.00 | 44 | 1014.2 |
| 20260509074602 | 21 | 312 | 9.7 | 0.0 | 0.00 | 0.00 | 0.00 | 38 | 1014.2 |
| 20260509074049 | 21 | 243 | 11.3 | 0.0 | 0.00 | 0.00 | 0.00 | 36 | 1014.1 |
| 20260509073532 | 21 | 293 | 11.3 | 0.0 | 0.00 | 0.00 | 0.00 | 39 | 1014.0 |
| 20260509073102 | 21 | 360 | 12.9 | 0.0 | 0.00 | 0.00 | 0.00 | 48 | 1014.0 |
| 20260509072528 | 21 | 336 | 14.5 | 0.0 | 0.00 | 0.00 | 0.00 | 49 | 1014.0 |
| 20260509072029 | 21 | 320 | 12.9 | 0.0 | 0.00 | 0.00 | 0.00 | 48 | 1013.9 |
| 20260509071559 | 21 | 298 | 14.5 | 0.0 | 0.00 | 0.00 | 0.00 | 50 | 1013.9 |
| 20260509071046 | 20 | 329 | 12.9 | 0.0 | 0.00 | 0.00 | 0.00 | 50 | 1013.9 |
| 20260509070531 | 20 | 339 | 14.5 | 0.0 | 0.00 | 0.00 | 0.00 | 50 | 1014.2 |
| 20260509070100 | 20 | 350 | 17.7 | 0.0 | 0.00 | 0.00 | 0.00 | 49 | 1014.2 |
| 20260509065547 | 20 | 316 | 16.1 | 0.0 | 0.00 | 0.00 | 0.00 | 48 | 1014.2 |
| 20260509065031 | 21 | 328 | 14.5 | 0.0 | 0.00 | 0.00 | 0.00 | 50 | 1014.4 |
| 20260509064538 | 21 | 305 | 11.3 | 0.0 | 0.00 | 0.00 | 0.00 | 48 | 1014.4 |
| 20260509064043 | 21 | 298 | 4.8 | 0.0 | 0.00 | 0.00 | 0.00 | 47 | 1014.4 |
| 20260509063526 | 21 | 277 | 4.8 | 0.0 | 0.00 | 0.00 | 0.00 | 35 | 1014.4 |
| 20260509063030 | 21 | 275 | 9.7 | 0.0 | 0.00 | 0.00 | 0.00 | 44 | 1014.4 |
| 20260509062538 | 21 | 323 | 12.9 | 0.0 | 0.00 | 0.00 | 0.00 | 50 | 1014.4 |
| 20260509062041 | 21 | 326 | 11.3 | 0.0 | 0.00 | 0.00 | 0.00 | 47 | 1014.4 |
| 20260509061529 | 21 | 360 | 8.0 | 0.0 | 0.00 | 0.00 | 0.00 | 49 | 1014.4 |
| 20260509061037 | 21 | 347 | 6.4 | 0.0 | 0.00 | 0.00 | 0.00 | 47 | 1014.4 |
| 20260509060538 | 21 | 58 | 8.0 | 0.0 | 0.00 | 0.00 | 0.00 | 51 | 1014.4 |
| 20260509060048 | 21 | 15 | 11.3 | 0.0 | 0.00 | 0.00 | 0.00 | 50 | 1014.4 |
| 20260509055535 | 21 | 345 | 11.3 | 0.0 | 0.00 | 0.00 | 0.00 | 48 | 1014.4 |
| 20260509055040 | 21 | 1 | 9.7 | 0.0 | 0.00 | 0.00 | 0.00 | 49 | 1014.6 |
| 20260509054528 | 21 | 333 | 11.3 | 0.0 | 0.00 | 0.00 | 0.00 | 49 | 1014.6 |
| 20260509054036 | 21 | 360 | 12.9 | 0.0 | 0.00 | 0.00 | 0.00 | 49 | 1014.6 |
| 20260509053540 | 21 | 338 | 8.0 | 0.0 | 0.00 | 0.00 | 0.00 | 47 | 1014.8 |
| 20260509053026 | 21 | 333 | 8.0 | 0.0 | 0.00 | 0.00 | 0.00 | 50 | 1014.8 |
| 20260509052552 | 21 | 19 | 6.4 | 0.0 | 0.00 | 0.00 | 0.00 | 48 | 1014.8 |
| 20260509052054 | 21 | 358 | 6.4 | 0.0 | 0.00 | 0.00 | 0.00 | 50 | 1014.8 |
| 20260509051538 | 21 | 34 | 6.4 | 0.0 | 0.00 | 0.00 | 0.00 | 50 | 1014.8 |
| 20260509051054 | 20 | 360 | 6.4 | 0.0 | 0.00 | 0.00 | 0.00 | 50 | 1014.8 |
| 20260509050529 | 20 | 322 | 4.8 | 0.0 | 0.00 | 0.00 | 0.00 | 50 | 1015.0 |
| 20260509050035 | 20 | 352 | 6.4 | 0.0 | 0.00 | 0.00 | 0.00 | 50 | 1015.0 |
| 20260509045548 | 20 | 6 | 6.4 | 0.0 | 0.00 | 0.00 | 0.00 | 50 | 1015.0 |
| 20260509045047 | 20 | 342 | 8.0 | 0.0 | 0.00 | 0.00 | 0.00 | 51 | 1014.9 |
| 20260509044552 | 20 | 358 | 8.0 | 0.0 | 0.00 | 0.00 | 0.00 | 52 | 1014.9 |
| 20260509044039 | 20 | 353 | 6.4 | 0.0 | 0.00 | 0.00 | 0.00 | 52 | 1014.9 |
| 20260509043543 | 20 | 347 | 6.4 | 0.0 | 0.00 | 0.00 | 0.00 | 53 | 1015.2 |
| 20260509043051 | 20 | 300 | 4.8 | 0.0 | 0.00 | 0.00 | 0.00 | 52 | 1015.2 |
| 20260509042539 | 20 | 334 | 4.8 | 0.0 | 0.00 | 0.00 | 0.00 | 52 | 1015.2 |
| 20260509042044 | 19 | 293 | 6.4 | 0.0 | 0.00 | 0.00 | 0.00 | 53 | 1015.1 |
| 20260509041552 | 19 | 293 | 6.4 | 0.0 | 0.00 | 0.00 | 0.00 | 52 | 1015.1 |
| 20260509041036 | 20 | 326 | 6.4 | 0.0 | 0.00 | 0.00 | 0.00 | 51 | 1015.1 |
| 20260509040541 | 19 | 341 | 6.4 | 0.0 | 0.00 | 0.00 | 0.00 | 51 | 1015.4 |
| 20260509040048 | 19 | 316 | 8.0 | 0.0 | 0.00 | 0.00 | 0.00 | 52 | 1015.4 |
| 20260509035536 | 19 | 324 | 9.7 | 0.0 | 0.00 | 0.00 | 0.00 | 50 | 1015.4 |
| 20260509035041 | 19 | 319 | 8.0 | 0.0 | 0.00 | 0.00 | 0.00 | 50 | 1015.3 |
| 20260509034549 | 19 | 318 | 6.4 | 0.0 | 0.00 | 0.00 | 0.00 | 51 | 1015.3 |
| 20260509034032 | 19 | 310 | 6.4 | 0.0 | 0.00 | 0.00 | 0.00 | 50 | 1015.3 |
| 20260509033536 | 19 | 340 | 8.0 | 0.0 | 0.00 | 0.00 | 0.00 | 50 | 1015.4 |
| 20260509033101 | 19 | 316 | 8.0 | 0.0 | 0.00 | 0.00 | 0.00 | 51 | 1015.4 |
| 20260509032529 | 19 | 316 | 8.0 | 0.0 | 0.00 | 0.00 | 0.00 | 51 | 1015.4 |
| 20260509032034 | 19 | 323 | 6.4 | 0.0 | 0.00 | 0.00 | 0.00 | 49 | 1015.4 |
| 20260509031541 | 19 | 322 | 6.4 | 0.0 | 0.00 | 0.00 | 0.00 | 50 | 1015.4 |
| 20260509031032 | 19 | 297 | 8.0 | 0.0 | 0.00 | 0.00 | 0.00 | 49 | 1015.4 |
| 20260509030537 | 19 | 307 | 8.0 | 0.0 | 0.00 | 0.00 | 0.00 | 48 | 1015.5 |
| 20260509030025 | 19 | 347 | 6.4 | 0.0 | 0.00 | 0.00 | 0.00 | 47 | 1015.5 |
| 20260509025531 | 19 | 308 | 6.4 | 0.0 | 0.00 | 0.00 | 0.00 | 48 | 1015.5 |
| 20260509025036 | 18 | 324 | 9.7 | 0.0 | 0.00 | 0.00 | 0.00 | 49 | 1015.5 |
| 20260509024601 | 18 | 309 | 9.7 | 0.0 | 0.00 | 0.00 | 0.00 | 48 | 1015.5 |
| 20260509024050 | 19 | 319 | 8.0 | 0.0 | 0.00 | 0.00 | 0.00 | 47 | 1015.5 |
| 20260509023533 | 19 | 257 | 6.4 | 0.0 | 0.00 | 0.00 | 0.00 | 47 | 1015.4 |
| 20260509023058 | 19 | 300 | 8.0 | 0.0 | 0.00 | 0.00 | 0.00 | 49 | 1015.4 |
| 20260509022545 | 19 | 271 | 9.7 | 0.0 | 0.00 | 0.00 | 0.00 | 50 | 1015.4 |
| 20260509022030 | 19 | 288 | 8.0 | 0.0 | 0.00 | 0.00 | 0.00 | 49 | 1015.5 |
| 20260509021559 | 19 | 269 | 8.0 | 0.0 | 0.00 | 0.00 | 0.00 | 50 | 1015.5 |
| 20260509021043 | 20 | 317 | 8.0 | 0.0 | 0.00 | 0.00 | 0.00 | 50 | 1015.5 |
| 20260509020545 | 20 | 324 | 6.4 | 0.0 | 0.00 | 0.00 | 0.00 | 49 | 1015.5 |
| 20260509020031 | 20 | 264 | 6.4 | 0.0 | 0.00 | 0.00 | 0.00 | 50 | 1015.5 |
| 20260509015539 | 20 | 278 | 6.4 | 0.0 | 0.00 | 0.00 | 0.00 | 48 | 1015.5 |
| 20260509015043 | 20 | 332 | 6.4 | 0.0 | 0.00 | 0.00 | 0.00 | 49 | 1015.4 |
| 20260509014529 | 20 | 290 | 4.8 | 0.0 | 0.00 | 0.00 | 0.00 | 49 | 1015.4 |
| 20260509014036 | 20 | 319 | 3.2 | 0.0 | 0.00 | 0.00 | 0.00 | 47 | 1015.4 |
| 20260509013538 | 20 | 328 | 3.2 | 0.0 | 0.00 | 0.00 | 0.00 | 48 | 1015.4 |
| 20260509013038 | 20 | 61 | 4.8 | 0.0 | 0.00 | 0.00 | 0.00 | 49 | 1015.4 |
| 20260509012546 | 20 | 331 | 4.8 | 0.0 | 0.00 | 0.00 | 0.00 | 52 | 1015.4 |
| 20260509012028 | 19 | 349 | 4.8 | 0.0 | 0.00 | 0.00 | 0.00 | 51 | 1015.4 |
| 20260509011534 | 19 | 313 | 4.8 | 0.0 | 0.00 | 0.00 | 0.00 | 50 | 1015.4 |
| 20260509011052 | 19 | 322 | 3.2 | 0.0 | 0.00 | 0.00 | 0.00 | 51 | 1015.4 |
| 20260509010552 | 19 | 299 | 3.2 | 0.0 | 0.00 | 0.00 | 0.00 | 52 | 1015.4 |
| 20260509010031 | 18 | 330 | 4.8 | 0.0 | 0.00 | 0.00 | 0.00 | 53 | 1015.4 |
| 20260509005534 | 18 | 325 | 4.8 | 0.0 | 0.00 | 0.00 | 0.00 | 52 | 1015.4 |
| 20260509005046 | 18 | 265 | 4.8 | 0.0 | 0.00 | 0.00 | 0.00 | 51 | 1015.3 |
| 20260509004614 | 18 | 351 | 3.2 | 0.0 | 0.00 | 0.00 | 0.00 | 53 | 1015.3 |
| 20260509004029 | 18 | 329 | 3.2 | 0.0 | 0.00 | 0.00 | 0.00 | 53 | 1015.3 |
| 20260509003541 | 18 | 330 | 3.2 | 0.0 | 0.00 | 0.00 | 0.00 | 52 | 1015.3 |
| 20260509003047 | 18 | 320 | 3.2 | 0.0 | 0.00 | 0.00 | 0.00 | 53 | 1015.3 |
| 20260509002554 | 18 | 320 | 4.8 | 0.0 | 0.00 | 0.00 | 0.00 | 51 | 1015.3 |
| 20260509002036 | 18 | 301 | 3.2 | 0.0 | 0.00 | 0.00 | 0.00 | 50 | 1015.2 |
| 20260509001557 | 18 | 297 | 1.6 | 0.0 | 0.00 | 0.00 | 0.00 | 48 | 1015.2 |
| 20260509001042 | 18 | 297 | 1.6 | 0.0 | 0.00 | 0.00 | 0.00 | 48 | 1015.2 |
| 20260509000545 | 18 | 297 | 1.6 | 0.0 | 0.00 | 0.00 | 0.00 | 47 | 1015.0 |
| 20260509000030 | 18 | 335 | 1.6 | 0.0 | 0.00 | 0.00 | 0.00 | 49 | 1015.0 |
| 20260508235536 | 18 | 326 | 0.0 | 0.0 | 0.00 | 0.00 | 0.00 | 50 | 1015.0 |
| 20260508235059 | 18 | 313 | 0.0 | 0.0 | 0.00 | 0.00 | 0.00 | 52 | 1014.9 |
| 20260508234543 | 18 | 313 | 0.0 | 0.0 | 0.00 | 0.00 | 0.00 | 53 | 1014.9 |
| 20260508234042 | 17 | 313 | 0.0 | 0.0 | 0.00 | 0.00 | 0.00 | 53 | 1014.9 |
| 20260508233543 | 17 | 313 | 1.6 | 0.0 | 0.00 | 0.00 | 0.00 | 53 | 1014.9 |
| 20260508233028 | 17 | 313 | 3.2 | 0.0 | 0.00 | 0.00 | 0.00 | 54 | 1014.9 |
| 20260508232533 | 17 | 313 | 1.6 | 0.0 | 0.00 | 0.00 | 0.00 | 54 | 1014.9 |
| 20260508232035 | 17 | 301 | 0.0 | 0.0 | 0.00 | 0.00 | 0.00 | 55 | 1014.9 |
| 20260508231539 | 16 | 301 | 1.6 | 0.0 | 0.00 | 0.00 | 0.00 | 56 | 1014.9 |
| 20260508231053 | 16 | 301 | 1.6 | 0.0 | 0.00 | 0.00 | 0.00 | 55 | 1014.9 |
| 20260508230550 | 16 | 211 | 1.6 | 0.0 | 0.00 | 0.00 | 0.00 | 58 | 1014.9 |
| 20260508230028 | 16 | 211 | 3.2 | 0.0 | 0.00 | 0.00 | 0.00 | 60 | 1014.9 |
| 20260508225537 | 15 | 211 | 1.6 | 0.0 | 0.00 | 0.00 | 0.00 | 61 | 1014.9 |
| 20260508225049 | 15 | 210 | 1.6 | 0.0 | 0.00 | 0.00 | 0.00 | 65 | 1014.8 |
| 20260508224528 | 15 | 210 | 1.6 | 0.0 | 0.00 | 0.00 | 0.00 | 68 | 1014.8 |
| 20260508224045 | 15 | 210 | 1.6 | 0.0 | 0.00 | 0.00 | 0.00 | 69 | 1014.8 |
| 20260508223608 | 15 | 210 | 0.0 | 0.0 | 0.00 | 0.00 | 0.00 | 73 | 1014.6 |
| 20260508223026 | 15 | 210 | 1.6 | 0.0 | 0.00 | 0.00 | 0.00 | 73 | 1014.6 |
| 20260508222552 | 15 | 210 | 1.6 | 0.0 | 0.00 | 0.00 | 0.00 | 73 | 1014.6 |
| 20260508222043 | 14 | 210 | 0.0 | 0.0 | 0.00 | 0.00 | 0.00 | 75 | 1014.4 |
| 20260508221550 | 14 | 210 | 0.0 | 0.0 | 0.00 | 0.00 | 0.00 | 77 | 1014.4 |
| 20260508221054 | 13 | 210 | 0.0 | 0.0 | 0.00 | 0.00 | 0.00 | 78 | 1014.4 |
| 20260508220528 | 13 | 210 | 0.0 | 0.0 | 0.00 | 0.00 | 0.00 | 79 | 1014.3 |
| 20260508220034 | 13 | 210 | 0.0 | 0.0 | 0.00 | 0.00 | 0.00 | 80 | 1014.3 |
| 20260508215541 | 13 | 210 | 1.6 | 0.0 | 0.00 | 0.00 | 0.00 | 81 | 1014.3 |
| 20260508215110 | 12 | 210 | 1.6 | 0.0 | 0.00 | 0.00 | 0.00 | 83 | 1014.2 |
| 20260508214529 | 12 | 210 | 0.0 | 0.0 | 0.00 | 0.00 | 0.00 | 84 | 1014.2 |
| 20260508214034 | 12 | 210 | 0.0 | 0.0 | 0.00 | 0.00 | 0.00 | 84 | 1014.2 |
| 20260508213545 | 12 | 210 | 1.6 | 0.0 | 0.00 | 0.00 | 0.00 | 84 | 1013.9 |
| 20260508213030 | 12 | 210 | 1.6 | 0.0 | 0.00 | 0.00 | 0.00 | 84 | 1013.9 |
| 20260508212537 | 12 | 210 | 0.0 | 0.0 | 0.00 | 0.00 | 0.00 | 83 | 1013.9 |
| 20260508212039 | 12 | 210 | 0.0 | 0.0 | 0.00 | 0.00 | 0.00 | 84 | 1013.9 |
| 20260508211539 | 12 | 210 | 0.0 | 0.0 | 0.00 | 0.00 | 0.00 | 84 | 1013.9 |
| 20260508211048 | 12 | 210 | 1.6 | 0.0 | 0.00 | 0.00 | 0.00 | 84 | 1013.9 |
| 20260508210530 | 12 | 210 | 3.2 | 0.0 | 0.00 | 0.00 | 0.00 | 84 | 1013.9 |
| 20260508210036 | 12 | 210 | 1.6 | 0.0 | 0.00 | 0.00 | 0.00 | 83 | 1013.9 |
| 20260508205542 | 12 | 209 | 0.0 | 0.0 | 0.00 | 0.00 | 0.00 | 82 | 1013.9 |
| 20260508205105 | 12 | 210 | 0.0 | 0.0 | 0.00 | 0.00 | 0.00 | 81 | 1013.7 |
| 20260508204529 | 12 | 210 | 0.0 | 0.0 | 0.00 | 0.00 | 0.00 | 81 | 1013.7 |
| 20260508204057 | 12 | 209 | 0.0 | 0.0 | 0.00 | 0.00 | 0.00 | 81 | 1013.7 |
| 20260508203534 | 12 | 210 | 0.0 | 0.0 | 0.00 | 0.00 | 0.00 | 80 | 1013.7 |
| 20260508203041 | 12 | 209 | 0.0 | 0.0 | 0.00 | 0.00 | 0.00 | 79 | 1013.7 |
| 20260508202548 | 12 | 210 | 1.6 | 0.0 | 0.00 | 0.00 | 0.00 | 79 | 1013.7 |
| 20260508202032 | 12 | 210 | 1.6 | 0.0 | 0.00 | 0.00 | 0.00 | 80 | 1013.5 |
| 20260508201539 | 12 | 210 | 0.0 | 0.0 | 0.00 | 0.00 | 0.00 | 81 | 1013.5 |
| 20260508201043 | 12 | 210 | 1.6 | 0.0 | 0.00 | 0.00 | 0.00 | 80 | 1013.5 |
| 20260508200553 | 12 | 210 | 0.0 | 0.0 | 0.00 | 0.00 | 0.00 | 78 | 1013.4 |
| 20260508200028 | 12 | 210 | 0.0 | 0.0 | 0.00 | 0.00 | 0.00 | 77 | 1013.4 |
| 20260508195536 | 12 | 210 | 0.0 | 0.0 | 0.00 | 0.00 | 0.00 | 77 | 1013.4 |
| 20260508195049 | 12 | 210 | 0.0 | 0.0 | 0.00 | 0.00 | 0.00 | 78 | 1013.3 |
| 20260508194527 | 12 | 210 | 0.0 | 0.0 | 0.00 | 0.00 | 0.00 | 77 | 1013.3 |
| 20260508194034 | 12 | 210 | 0.0 | 0.0 | 0.00 | 0.00 | 0.00 | 77 | 1013.3 |
| 20260508193606 | 13 | 210 | 0.0 | 0.0 | 0.00 | 0.00 | 0.00 | 76 | 1013.3 |
| 20260508193050 | 13 | 209 | 0.0 | 0.0 | 0.00 | 0.00 | 0.00 | 74 | 1013.3 |
| 20260508192530 | 13 | 210 | 1.6 | 0.0 | 0.00 | 0.00 | 0.00 | 74 | 1013.3 |
| 20260508192038 | 13 | 210 | 3.2 | 0.0 | 0.00 | 0.00 | 0.00 | 74 | 1013.1 |
| 20260508191605 | 13 | 210 | 3.2 | 0.0 | 0.00 | 0.00 | 0.00 | 73 | 1013.1 |
| 20260508191112 | 13 | 141 | 1.6 | 0.0 | 0.00 | 0.00 | 0.00 | 73 | 1013.1 |
| 20260508190535 | 13 | 141 | 1.6 | 0.0 | 0.00 | 0.00 | 0.00 | 72 | 1013.2 |
| 20260508190040 | 13 | 142 | 1.6 | 0.0 | 0.00 | 0.00 | 0.00 | 71 | 1013.2 |
| 20260508185545 | 13 | 141 | 0.0 | 0.0 | 0.00 | 0.00 | 0.00 | 70 | 1013.2 |
| 20260508185029 | 13 | 141 | 0.0 | 0.0 | 0.00 | 0.00 | 0.00 | 69 | 1013.1 |
| 20260508184554 | 13 | 141 | 0.0 | 0.0 | 0.00 | 0.00 | 0.00 | 68 | 1013.1 |
| 20260508184040 | 13 | 141 | 0.0 | 0.0 | 0.00 | 0.00 | 0.00 | 68 | 1013.1 |
| 20260508183526 | 13 | 141 | 1.6 | 0.0 | 0.00 | 0.00 | 0.00 | 69 | 1013.3 |
| 20260508183034 | 13 | 141 | 3.2 | 0.0 | 0.00 | 0.00 | 0.00 | 69 | 1013.3 |
| 20260508182542 | 13 | 134 | 3.2 | 0.0 | 0.00 | 0.00 | 0.00 | 69 | 1013.3 |
| 20260508182044 | 13 | 334 | 0.0 | 0.0 | 0.00 | 0.00 | 0.00 | 69 | 1012.9 |
| 20260508181530 | 14 | 334 | 0.0 | 0.0 | 0.00 | 0.00 | 0.00 | 67 | 1012.9 |
| 20260508181038 | 14 | 334 | 0.0 | 0.0 | 0.00 | 0.00 | 0.00 | 67 | 1012.9 |
| 20260508180538 | 14 | 334 | 1.6 | 0.0 | 0.00 | 0.00 | 0.00 | 67 | 1012.9 |
| 20260508180045 | 14 | 334 | 1.6 | 0.0 | 0.00 | 0.00 | 0.00 | 66 | 1012.9 |
| 20260508175554 | 14 | 334 | 0.0 | 0.0 | 0.00 | 0.00 | 0.00 | 66 | 1012.9 |
| 20260508175036 | 14 | 334 | 0.0 | 0.0 | 0.00 | 0.00 | 0.00 | 65 | 1012.8 |
| 20260508174543 | 15 | 334 | 1.6 | 0.0 | 0.00 | 0.00 | 0.00 | 64 | 1012.8 |
| 20260508174029 | 15 | 334 | 3.2 | 0.0 | 0.00 | 0.00 | 0.00 | 63 | 1012.8 |
| 20260508173533 | 15 | 334 | 6.4 | 0.0 | 0.00 | 0.00 | 0.00 | 63 | 1012.8 |
| 20260508173058 | 15 | 326 | 6.4 | 0.0 | 0.00 | 0.00 | 0.00 | 63 | 1012.8 |
| 20260508172545 | 15 | 330 | 3.2 | 0.0 | 0.00 | 0.00 | 0.00 | 64 | 1012.8 |
| 20260508172030 | 14 | 360 | 1.6 | 0.0 | 0.00 | 0.00 | 0.00 | 63 | 1012.8 |
| 20260508171537 | 14 | 97 | 3.2 | 0.0 | 0.00 | 0.00 | 0.00 | 64 | 1012.8 |
| 20260508171042 | 14 | 112 | 3.2 | 0.0 | 0.00 | 0.00 | 0.00 | 65 | 1012.8 |
| 20260508170543 | 15 | 128 | 3.2 | 0.0 | 0.00 | 0.00 | 0.00 | 63 | 1013.0 |
| 20260508170028 | 15 | 42 | 4.8 | 0.0 | 0.00 | 0.00 | 0.00 | 61 | 1013.0 |
| 20260508165558 | 15 | 358 | 8.0 | 0.0 | 0.00 | 0.00 | 0.00 | 61 | 1013.0 |
| 20260508165035 | 15 | 358 | 8.0 | 0.0 | 0.00 | 0.00 | 0.00 | 60 | 1013.4 |
| 20260508164604 | 15 | 359 | 6.4 | 0.0 | 0.00 | 0.00 | 0.00 | 60 | 1013.4 |
| 20260508164109 | 15 | 340 | 4.8 | 0.0 | 0.00 | 0.00 | 0.00 | 59 | 1013.4 |
| 20260508163527 | 15 | 340 | 1.6 | 0.0 | 0.00 | 0.00 | 0.00 | 58 | 1013.0 |
| 20260508163034 | 15 | 340 | 1.6 | 0.0 | 0.00 | 0.00 | 0.00 | 58 | 1013.0 |
| 20260508162602 | 15 | 340 | 3.2 | 0.0 | 0.00 | 0.00 | 0.00 | 58 | 1013.0 |
| 20260508162053 | 15 | 340 | 4.8 | 0.0 | 0.00 | 0.00 | 0.00 | 58 | 1012.9 |
| 20260508161554 | 15 | 340 | 4.8 | 0.0 | 0.00 | 0.00 | 0.00 | 58 | 1012.9 |
| 20260508161032 | 15 | 340 | 6.4 | 0.0 | 0.00 | 0.00 | 0.00 | 58 | 1012.9 |
| 20260508160556 | 15 | 339 | 6.4 | 0.0 | 0.00 | 0.00 | 0.00 | 57 | 1013.1 |
| 20260508160050 | 15 | 321 | 4.8 | 0.0 | 0.00 | 0.00 | 0.00 | 57 | 1013.1 |
| 20260508155530 | 15 | 321 | 3.2 | 0.0 | 0.00 | 0.00 | 0.00 | 57 | 1013.1 |
| 20260508155032 | 15 | 35 | 0.0 | 0.0 | 0.00 | 0.00 | 0.00 | 57 | 1013.2 |
| 20260508154546 | 15 | 39 | 1.6 | 0.0 | 0.00 | 0.00 | 0.00 | 57 | 1013.2 |
| 20260508154047 | 15 | 39 | 3.2 | 0.0 | 0.00 | 0.00 | 0.00 | 57 | 1013.2 |
| 20260508153549 | 15 | 1 | 6.4 | 0.0 | 0.00 | 0.00 | 0.00 | 57 | 1013.0 |
| 20260508153036 | 16 | 337 | 8.0 | 0.0 | 0.00 | 0.00 | 0.00 | 57 | 1013.0 |
| 20260508152540 | 16 | 346 | 4.8 | 0.0 | 0.00 | 0.00 | 0.00 | 57 | 1013.0 |
| 20260508152041 | 16 | 349 | 1.6 | 0.0 | 0.00 | 0.00 | 0.00 | 56 | 1013.1 |
| 20260508151545 | 16 | 349 | 0.0 | 0.0 | 0.00 | 0.00 | 0.00 | 56 | 1013.1 |
| 20260508151032 | 16 | 349 | 0.0 | 0.0 | 0.00 | 0.00 | 0.00 | 56 | 1013.1 |
| 20260508150535 | 16 | 349 | 3.2 | 0.0 | 0.00 | 0.00 | 0.00 | 55 | 1012.9 |
| 20260508150049 | 16 | 349 | 8.0 | 0.0 | 0.00 | 0.00 | 0.00 | 55 | 1012.9 |
| 20260508145539 | 16 | 4 | 9.7 | 0.0 | 0.00 | 0.00 | 0.00 | 54 | 1012.9 |
| 20260508145043 | 16 | 358 | 9.7 | 0.0 | 0.00 | 0.00 | 0.00 | 54 | 1013.1 |
| 20260508144530 | 16 | 360 | 8.0 | 0.0 | 0.00 | 0.00 | 0.00 | 53 | 1013.1 |
| 20260508144034 | 16 | 328 | 4.8 | 0.0 | 0.00 | 0.00 | 0.00 | 53 | 1013.1 |
| 20260508143537 | 16 | 360 | 4.8 | 0.0 | 0.00 | 0.00 | 0.00 | 51 | 1013.1 |
| 20260508143042 | 17 | 347 | 4.8 | 0.0 | 0.00 | 0.00 | 0.00 | 50 | 1013.1 |
| 20260508142552 | 17 | 349 | 4.8 | 0.0 | 0.00 | 0.00 | 0.00 | 50 | 1013.1 |
| 20260508142055 | 17 | 334 | 6.4 | 0.0 | 0.00 | 0.00 | 0.00 | 50 | 1013.1 |
| 20260508141531 | 17 | 353 | 9.7 | 0.0 | 0.00 | 0.00 | 0.00 | 51 | 1013.1 |
| 20260508141045 | 17 | 353 | 14.5 | 0.0 | 0.00 | 0.00 | 0.00 | 52 | 1013.1 |
| 20260508140549 | 17 | 316 | 12.9 | 0.0 | 0.00 | 0.00 | 0.00 | 52 | 1013.3 |
| 20260508140029 | 17 | 350 | 12.9 | 0.0 | 0.00 | 0.00 | 0.00 | 52 | 1013.3 |
| 20260508135544 | 17 | 349 | 12.9 | 0.0 | 0.00 | 0.00 | 0.00 | 53 | 1013.3 |
| 20260508135044 | 17 | 18 | 16.1 | 0.0 | 0.00 | 0.00 | 0.00 | 52 | 1012.9 |
| 20260508134613 | 17 | 346 | 17.7 | 0.0 | 0.00 | 0.00 | 0.00 | 53 | 1012.9 |
| 20260508134039 | 17 | 360 | 17.7 | 0.0 | 0.00 | 0.00 | 0.00 | 53 | 1012.9 |
| 20260508133542 | 17 | 332 | 17.7 | 0.0 | 0.00 | 0.00 | 0.00 | 53 | 1012.8 |
| 20260508133048 | 17 | 345 | 16.1 | 0.0 | 0.00 | 0.00 | 0.00 | 53 | 1012.8 |
| 20260508132535 | 18 | 323 | 16.1 | 0.0 | 0.00 | 0.00 | 0.00 | 53 | 1012.8 |
| 20260508132100 | 18 | 346 | 19.3 | 0.0 | 0.00 | 0.00 | 0.00 | 52 | 1012.9 |
| 20260508131546 | 18 | 332 | 20.9 | 0.0 | 0.00 | 0.00 | 0.00 | 49 | 1012.9 |
| 20260508131049 | 18 | 334 | 19.3 | 0.0 | 0.00 | 0.00 | 0.00 | 49 | 1012.9 |
| 20260508130555 | 18 | 319 | 20.9 | 0.0 | 0.00 | 0.00 | 0.00 | 49 | 1013.0 |
| 20260508130040 | 18 | 333 | 20.9 | 0.0 | 0.00 | 0.00 | 0.00 | 46 | 1013.0 |
| 20260508125547 | 18 | 336 | 20.9 | 0.0 | 0.00 | 0.00 | 0.00 | 46 | 1013.0 |
| 20260508125030 | 18 | 5 | 20.9 | 0.0 | 0.00 | 0.00 | 0.00 | 47 | 1012.9 |
| 20260508124539 | 18 | 8 | 20.9 | 0.0 | 0.00 | 0.00 | 0.00 | 50 | 1012.9 |
| 20260508124046 | 18 | 319 | 22.5 | 0.0 | 0.00 | 0.00 | 0.00 | 50 | 1012.9 |
| 20260508123529 | 18 | 339 | 22.5 | 0.0 | 0.00 | 0.00 | 0.00 | 51 | 1012.8 |
| 20260508123031 | 18 | 335 | 20.9 | 0.0 | 0.00 | 0.00 | 0.00 | 52 | 1012.8 |
| 20260508122600 | 18 | 316 | 19.3 | 0.0 | 0.00 | 0.00 | 0.00 | 50 | 1012.8 |
| 20260508122043 | 18 | 349 | 20.9 | 0.0 | 0.00 | 0.00 | 0.00 | 49 | 1012.5 |
| 20260508121529 | 18 | 6 | 20.9 | 0.0 | 0.00 | 0.00 | 0.00 | 49 | 1012.5 |
| 20260508121036 | 18 | 54 | 22.5 | 0.0 | 0.00 | 0.00 | 0.00 | 48 | 1012.5 |
| 20260508120540 | 18 | 360 | 20.9 | 0.0 | 0.00 | 0.00 | 0.00 | 49 | 1012.3 |
| 20260508120026 | 18 | 351 | 20.9 | 0.0 | 0.00 | 0.00 | 0.00 | 48 | 1012.3 |
| 20260508115547 | 18 | 360 | 20.9 | 0.0 | 0.00 | 0.00 | 0.00 | 47 | 1012.3 |
| 20260508115032 | 18 | 360 | 20.9 | 0.0 | 0.00 | 0.00 | 0.00 | 46 | 1012.1 |
| 20260508114540 | 18 | 45 | 20.9 | 0.0 | 0.00 | 0.00 | 0.00 | 47 | 1012.1 |
| 20260508114107 | 18 | 358 | 20.9 | 0.0 | 0.00 | 0.00 | 0.00 | 46 | 1012.1 |
| 20260508113530 | 18 | 326 | 22.5 | 0.0 | 0.00 | 0.00 | 0.00 | 45 | 1012.0 |
| 20260508113037 | 18 | 360 | 19.3 | 0.0 | 0.00 | 0.00 | 0.00 | 44 | 1012.0 |
| 20260508112544 | 18 | 346 | 16.1 | 0.0 | 0.00 | 0.00 | 0.00 | 46 | 1012.0 |
| 20260508112042 | 18 | 360 | 17.7 | 0.0 | 0.00 | 0.00 | 0.00 | 45 | 1011.8 |
| 20260508111527 | 18 | 314 | 19.3 | 0.0 | 0.00 | 0.00 | 0.00 | 46 | 1011.8 |
| 20260508111034 | 18 | 336 | 19.3 | 0.0 | 0.00 | 0.00 | 0.00 | 48 | 1011.8 |
| 20260508110538 | 18 | 360 | 19.3 | 0.0 | 0.00 | 0.00 | 0.00 | 48 | 1011.6 |
| 20260508110043 | 18 | 329 | 20.9 | 0.0 | 0.00 | 0.00 | 0.00 | 49 | 1011.6 |
| 20260508105530 | 18 | 353 | 22.5 | 0.0 | 0.00 | 0.00 | 0.00 | 49 | 1011.6 |
| 20260508105034 | 18 | 310 | 20.9 | 0.0 | 0.00 | 0.00 | 0.00 | 47 | 1011.3 |
| 20260508104541 | 18 | 319 | 19.3 | 0.0 | 0.00 | 0.00 | 0.00 | 50 | 1011.3 |
| 20260508104043 | 18 | 336 | 20.9 | 0.0 | 0.00 | 0.00 | 0.00 | 50 | 1011.3 |
| 20260508103547 | 18 | 329 | 22.5 | 0.0 | 0.00 | 0.00 | 0.00 | 49 | 1011.2 |
| 20260508103032 | 18 | 360 | 24.1 | 0.0 | 0.00 | 0.00 | 0.00 | 51 | 1011.2 |
| 20260508102537 | 18 | 355 | 25.7 | 0.0 | 0.00 | 0.00 | 0.00 | 51 | 1011.2 |
| 20260508102110 | 18 | 356 | 24.1 | 0.0 | 0.00 | 0.00 | 0.00 | 51 | 1011.0 |
| 20260508101527 | 18 | 330 | 20.9 | 0.0 | 0.00 | 0.00 | 0.00 | 52 | 1011.0 |
| 20260508101042 | 18 | 360 | 20.9 | 0.0 | 0.00 | 0.00 | 0.00 | 53 | 1011.0 |
| 20260508100601 | 18 | 351 | 22.5 | 0.0 | 0.00 | 0.00 | 0.00 | 53 | 1010.8 |
| 20260508100046 | 18 | 309 | 20.9 | 0.0 | 0.00 | 0.00 | 0.00 | 52 | 1010.8 |
| 20260508095613 | 18 | 324 | 20.9 | 0.0 | 0.00 | 0.00 | 0.00 | 55 | 1010.8 |
| 20260508095036 | 18 | 314 | 24.1 | 0.0 | 0.00 | 0.00 | 0.00 | 56 | 1010.5 |
| 20260508094542 | 18 | 328 | 24.1 | 0.0 | 0.00 | 0.00 | 0.00 | 58 | 1010.5 |
| 20260508094030 | 18 | 1 | 22.5 | 0.0 | 0.00 | 0.00 | 0.00 | 56 | 1010.5 |
| 20260508093532 | 18 | 344 | 22.5 | 0.0 | 0.00 | 0.00 | 0.00 | 57 | 1010.5 |
| 20260508093039 | 18 | 338 | 22.5 | 0.0 | 0.00 | 0.00 | 0.00 | 58 | 1010.5 |
| 20260508092602 | 18 | 313 | 20.9 | 0.0 | 0.00 | 0.00 | 0.00 | 59 | 1010.5 |
| 20260508092026 | 18 | 358 | 20.9 | 0.0 | 0.00 | 0.00 | 0.00 | 62 | 1010.6 |